Погода в Эпимахове

Россия / Псковская область     56°18′10″N   28°33′08″E
темп.,
°C
ветер,
м/с
пор.,
м/с
влажн.,
%
обл.,
%
осадки,
мм/ч
давл.,
гПа
погр.,
м
16 сентября, чт
чт1600:00+4ссв22865 0.0 102121
03:00+3св11935 0.0 102110
06:00+2в11946 0.0 102210
09:00+7в23735 0.0 1022285
12:00+12вюв235211 0.0 10221167
15:00+14ююв2246100 0.0 10201413
18:00+10вюв2460100 0.0 1019168
21:00+7вюв3771100 0.0 1019187
17 сентября, пт
пт1700:00+6вюв3875100 0.0 1019209
03:00+5в3976100 0.0 1019235
06:00+4в398181 0.0 1018239
09:00+7в5106791 0.0 1018446
12:00+11в574727 0.0 10171061
15:00+13в564391 0.0 10171382
18:00+11всв485296 0.0 1017972
21:00+8всв41266100 0.0 1019489
18 сентября, сб
сб1800:00+7в41367100 0.0 1020552
03:00+5в5136977 0.0 1020560
06:00+4всв5147280 0.0 1021571
09:00+6в51462100 0.0 1021786
12:00+11в71146100 0.0 10201228
15:00+13в7103977 0.0 10191498
18:00+10всв61151100 0.0 10201207
21:00+8всв61356100 0.0 1020887
19 сентября, вс
вс1900:00+7всв51366100 0.0 1020734
03:00+6всв51372100 0.0 1020640
06:00+5всв5137486 0.0 1019572
09:00+7всв5126829 0.0 1020666
12:00+10в5105483 0.0 10201067
15:00+12в694734 0.1 10191543
18:00+9всв5105896 0.0 10201333
21:00+6всв51166100 0.0 1021873
20 сентября, пн
пн2000:00+6всв51166100 0.0 1022917
03:00+5св51169100 0.0 1022842
06:00+4св51270100 0.0 1022738
09:00+5св5127098 0.0 1022828
12:00+9св71055100 0.0 10221079
15:00+10св61250100 0.0 10221520
18:00+8всв51263100 0.0 10221290
21:00+8св51160100 0.0 10231173